Flag for Dominican Republic Past Weather in Santiago de los Caballeros, Dominican Republic — Yesterday and Last 2 Weeks

Now
75 °F

Partly cloudy.


Feels Like: 75 °F
Forecast: 73 / 88 °F
Wind: 7 mph from Northwest

Location: Santiago

Current Time: May 27, 2016 at 10:08:13 PM

Latest Report: May 27, 2016 at 9:00 PM


Visibility: N/A

Pressure: 29.95 "Hg

Humidity: 89%

Dew Point: 72 °F

Location of Santiago de los CaballerosLocation

Past Weather in Santiago de los Caballeros — Graph

°F

Santiago de los Caballeros Temperature Yesterday

Maximum temperature yesterday: 86 °F (at 3:00 PM)
Minimum temperature yesterday: 73 °F (at 5:00 AM)
Average temperature yesterday: 79 °F

High & Low Weather Summary for the Past Weeks

 TemperatureHumidityPressure
High93 °F (May 22, 3:02 PM)100% (May 13, 5:00 AM)30.12 "Hg (May 13, 5:00 AM)
Low70 °F (May 24, 7:00 PM)49% (May 19, 5:00 PM)29.86 "Hg (May 27, 3:00 PM)
Average80 °F79%30.00 "Hg
* Reported May 12 9:00 PM — May 27 9:00 PM, Santiago de los Caballeros, Weather by CustomWeather, © 2016

Note: Actual official high and low records may vary slightly from our data, if they occured in-between our weather recording intervals... More about our weather records

Advertising

Santiago de los Caballeros Weather History for the Previous 24 Hours

Scroll right to see more
 ConditionsComfort  
Time TempWeatherWind HumidityBarometerVisibility
9:00 PM
Fri, May 27
75 °FPartly cloudy.7 mph89%29.95 "HgN/A
8:00 PM77 °FPassing clouds.16 mph83%29.92 "HgN/A
7:00 PM81 °FThunderstorms. Partly sunny.7 mph74%29.89 "HgN/A
6:00 PM82 °FBroken clouds.14 mph70%29.86 "HgN/A
5:00 PM88 °FScattered clouds.6 mph55%29.86 "HgN/A
4:00 PM90 °FScattered clouds.13 mph52%29.86 "HgN/A
3:00 PM88 °FScattered clouds.5 mph59%29.86 "HgN/A
2:00 PM90 °FScattered clouds.12 mph55%29.89 "HgN/A
1:06 PM88 °FPassing clouds.12 mph59%29.92 "HgN/A
1:00 PM88 °FPassing clouds.12 mph59%29.92 "HgN/A
12:00 PM88 °FPartly sunny.12 mph59%29.92 "HgN/A
6:00 AM73 °FPartly cloudy.No wind100%29.92 "HgN/A
4:00 AM73 °FPartly cloudy.5 mph94%29.92 "HgN/A
3:00 AM73 °FPartly cloudy.7 mph94%29.92 "HgN/A
2:00 AM75 °FPartly cloudy.6 mph94%29.92 "HgN/A
1:00 AM75 °FLight rain. Mostly cloudy.5 mph94%29.95 "Hg5 mi
12:00 AM75 °FLight rain. Mostly cloudy.5 mph94%29.98 "Hg5 mi
11:00 PM
Thu, May 26
75 °FMostly cloudy.5 mph94%29.98 "HgN/A
10:00 PM75 °FMild.2 mph94%29.98 "HgN/A
Weather by CustomWeather, © 2016

See weather overviewHow to use our weather pages